Location: Briarstone Lake
(43.1454°N, 93.2359°W)
Time: 02:25:37
(UTC+00:00)

BlueWalker 3 - Pass Details

Date: 26 January 2026
Orbit: 450 x 461 km, 53.2° (Epoch: 7 February)

Event Time Altitude Azimuth Distance (km) Brightness Sun altitude
Rises 00:25:18 0° 258° (WSW) 2,452 7.6 -12.7°
Reaches altitude 10° 00:27:34 10° 268° (W) 1,581 5.8 -13.1°
Maximum altitude 00:30:49 33° 334° (NNW) 777 3.0 -13.7°
Enters shadow 00:33:03 17° 32° (NNE) 1,222 3.5 -14.1°
